CZ-3C DEB, 42470

Orbit data source: Space-Track

CZ-3C DEB, 42470 is space debris in HEO originally from a launch on Sun, 31 Oct 2010 UTC launched from the Xichang Space Center, China (XSC). Debris objects in space refer to the collection of defunct objects orbiting the Earth. Examples of debris include non-operational satellites, rocket bodies, and fragments generated from explosions, collisions, or faulty payload assembly.

Loading next visibility...
CZ-3C DEB details
Identifier
42470, 2010-057BK
Orbit
HEO
Last TLE update1 month ago
Origin
Flag of CNCASC (CN / PRC)
ManufacturerCALT
MissionSpacecraft
Bus & MotorUnknown
MassUnknown
Launch date (UTC)
2010-10-31 (14 years ago)
Launch vehicleUnknown
Launch site
Xichang Space Center, China (XSC)
Object type
Payload
Rocket body
Debris
Shape & HBRUnknown
Radar Cross SectionMedium (>0.1 m² and <1 m²)

Expand to show TLE details & history

TLE from 1 month ago
0 CZ-3C DEB
1 42470U 10057BK  24308.84577434  .00015442  00000-0  29645-1 0  9992
2 42470  20.8469 201.2865 6776932 229.9083  47.9121  2.84193663104859
Epoch: 2024-11-03T20:17Z
Definitive object data (Epoch: 2024-11-03T20:17:54.902Z)
Latitude0.00019°
Longitude-146.67222°
Altitude13,862.206 km
Speed4.522 km/s
True Right ascension13h 25m 32s
True Declination0° 00' 01"
Sunlit
Object was in daylight at TLE epoch
Visualization TLE readout
Latitude13.64018°
Longitude-122.27355°
Altitude18,992.17 km
Speed3.528 km/s
Apparent Right ascension15h 45m 20s
Apparent Declination4° 09' 44"
Sunlit
Object is in daylight
Visualization observer readout
Local Sidereal Time08:14:00
Azimuth71.7° E
Elevation-14.493°
Doppler factor1
Orbital elements
Apogee altitude28,950.453 km
Perigee altitude408.947 km
Semi-major axis21,057.837 km
Eccentricity0.6776932
Inclination20.8469°
RAAN201.2865°
Arg. of periapsis229.9083°
True anomaly130.16981°
Mean anomaly47.9121°
Eccentric anomaly86.67572°
Mean motion0.71027 °/min
BSTAR0.029645
Orbital period506.85 mins
Loading maneuver chart data...
Loading historical data...
Loading historical data...
Loading historical data...
Loading historical data...
Loading historical data...
Loading historical data...
Loading historical data...

CZ-3C DEB Visibility forecast

Observer location: undefined°, undefined

Span
Click to sort rows by Start time (UTC) header in descending order
Start Az.
Max El. time (UTC)
Max El. Az.
Max El.
End time (UTC)
End Az.
443 mins2024-12-04 17:45:35.033Z237.403° WSW2024-12-04 20:33:35.033Z231.821° WSW39.292°2024-12-05 01:08:35.033Z154.509° SSE
|